Home   Weather   El Monte   Past weeks

Flag for USA Past Weather in El Monte, California, USA — Yesterday and Last 2 Weeks

Now
40 °F

Clear.


Feels Like: 40 °F
Forecast: 40 / 55 °F
Wind: No wind

Location: Fullerton Municipal Airport

Current Time: Jan 24, 2017 at 5:33:55 am

Latest Report: Jan 24, 2017 at 4:53 am


Visibility: 8 mi

Pressure: 29.95 "Hg

Humidity: 93%

Dew Point: 38 °F

Location of El MonteLocation

Past Weather in El Monte — Graph

°F

El Monte Temperature Yesterday

Maximum temperature yesterday: 57 °F (at 11:01 am)
Minimum temperature yesterday: 43 °F (at 11:53 pm)
Average temperature yesterday: 52 °F

High & Low Weather Summary for the Past Weeks

 TemperatureHumidityPressure
High72 °F (Jan 14, 2:53 pm)100% (Jan 10, 12:12 am)30.20 "Hg (Jan 10, 12:12 am)
Low40 °F (Jan 24, 3:53 am)31% (Jan 14, 2:53 pm)29.44 "Hg (Jan 20, 3:00 pm)
Average55 °F84%29.99 "Hg
* Reported Jan 9 3:34 am — Jan 24 3:53 am, El Monte, Weather by CustomWeather, © 2017

Note: Actual official high and low records may vary slightly from our data, if they occured in-between our weather recording intervals... More about our weather records

Advertising

El Monte Weather History for the Previous 24 Hours

Scroll right to see more
 ConditionsComfort  
Time TempWeatherWind HumidityBarometerVisibility
3:53 am
Tue, Jan 24
40 °FClear.No wind97%29.95 "Hg9 mi
2:53 am41 °FClear.No wind93%29.94 "Hg10 mi
1:53 am41 °FClear.No wind93%29.93 "Hg10 mi
12:53 am41 °FClear.No wind96%29.92 "Hg10 mi
11:53 pm
Mon, Jan 23
43 °FClear.No wind93%29.91 "Hg10 mi
10:53 pm44 °FClear.No wind93%29.90 "Hg10 mi
9:53 pm46 °FClear.No wind86%29.89 "Hg10 mi
8:53 pm47 °FClear.No wind86%29.87 "Hg10 mi
7:53 pm50 °FClear.No wind77%29.85 "Hg10 mi
6:53 pm52 °FClear.3 mph72%29.85 "Hg10 mi
5:53 pm53 °FClear.3 mph69%29.85 "Hg10 mi
4:53 pm54 °FScattered clouds.6 mph62%29.84 "Hg10 mi
3:53 pm55 °FPartly sunny.7 mph59%29.83 "Hg10 mi
2:53 pm57 °FPartly sunny.6 mph60%29.84 "Hg10 mi
1:53 pm56 °FPartly sunny.8 mph62%29.84 "Hg10 mi
1:37 pm55 °FLight rain. Partly sunny.5 mph69%29.84 "Hg10 mi
12:53 pm53 °FLight rain. Partly sunny.8 mph74%29.85 "Hg10 mi
11:53 am56 °FPartly sunny.16 mph60%29.86 "Hg10 mi
11:01 am57 °FScattered clouds.15 mph69%29.89 "Hg10 mi
9:53 am53 °FPartly sunny.5 mph77%29.92 "Hg10 mi
8:53 am51 °FLight rain. Partly sunny.No wind80%29.90 "Hg10 mi
8:17 am53 °FThundershowers. Mostly cloudy.6 mph74%29.90 "Hg10 mi
7:53 am52 °FLight rain. Partly sunny.3 mph80%29.89 "Hg10 mi
6:53 am50 °FLight rain. Passing clouds.6 mph89%29.89 "Hg10 mi
6:15 am51 °FLight rain. Partly cloudy.3 mph83%29.89 "Hg10 mi
6:00 am50 °FThundershowers. Passing clouds.3 mph83%29.89 "Hg10 mi
Weather by CustomWeather, © 2017

See weather overviewHow to use our weather pages